Air Resources Laboratory banner image
Air Resources Laboratory web site National Oceanic and Atmospheric Administration (NOAA)

ma roundup


Office: BOX

ASUS41 KBOX 121010
RWRBOX

REGIONAL WEATHER ROUNDUP
NATIONAL WEATHER SERVICE TAUNTON MA
500 AM EST TUE DEC 12 2017

NOTE:  "FAIR" INDICATES FEW OR NO CLOUDS BELOW 12,000 FEET WITH NO
SIGNIFICANT WEATHER AND/OR OBSTRUCTIONS TO VISIBILITY.

MAZALL-121100-
EASTERN MASSACHUSETTS

CITY           SKY/WX    TMP DP  RH WIND       PRES   REMARKS
BOSTON         CLOUDY    37  27  67 SE10      29.89F WCI  30
BEVERLY        CLOUDY    31  27  85 CALM      29.89F
LAWRENCE       CLOUDY    32  25  75 N3        29.91F
BEDFORD        CLOUDY    30  24  78 CALM      29.87F
BLUE HILL        N/A     33  23  66 SE13      29.85F WCI  24
NORWOOD        CLOUDY    31  28  89 CALM      29.89F
MARSHFIELD     CLOUDY    39  30  70 SE7G13    29.88F
PLYMOUTH       CLOUDY    35  28  75 E3        29.88F
TAUNTON        CLOUDY    31  29  92 CALM      29.87F
NEW BEDFORD    CLOUDY    33  30  88 CALM      29.87F
$$

MAZALL-121100-
CAPE COD AND THE ISLANDS

CITY           SKY/WX    TMP DP  RH WIND       PRES   REMARKS
FALMOUTH       CLOUDY    36  28  75 NE7       29.88F WCI  30
HYANNIS        CLOUDY    35  30  82 NE3       29.87F
CHATHAM        CLOUDY    41  32  70 SE5       29.90F
PROVINCETOWN   CLOUDY    37  29  72 E5        29.91F
NANTUCKET      CLOUDY    43  35  73 SE13      29.88F
MARTHAS VNYRD  CLOUDY     2  32 100 CALM      29.87F
$$

MAZALL-121100-
CENTRAL AND WESTERN MASSACHUSETTS

CITY           SKY/WX    TMP DP  RH WIND       PRES   REMARKS
WORCESTER      CLOUDY    28  18  66 E6        29.82F WCI  22
FITCHBURG      CLOUDY    30  26  85 W3        29.88F
ORANGE         LGT SNOW  27  27 100 NW3       29.83F FOG
SPRINGFIELD    CLOUDY    32  21  62 E3        29.82F
WESTFIELD      CLOUDY    29  26  89 N6        29.83F WCI  23
NORTH ADAMS    LGT SNOW  28  24  85 E7        29.78F FOG     WCI  21
PITTSFIELD     LGT SNOW  29  23  78 E6        29.73F WCI  23
$$

RIZALL-121100-
RHODE ISLAND

CITY           SKY/WX    TMP DP  RH WIND       PRES   REMARKS
PROVIDENCE     CLOUDY    36  30  79 E6        29.88F WCI  31
NEWPORT        CLOUDY    36  29  75 E3        29.86F
BLOCK ISLAND     N/A    N/A N/A N/A MISG        N/A
SMITHFIELD     MIX PCPN  32  25  75 E5        29.86F WCI  27
WESTERLY       CLOUDY    35  28  75 NE5       29.86F WCI  31
$$

CTZALL-121100-
CONNECTICUT

CITY           SKY/WX    TMP DP  RH WIND       PRES   REMARKS
BRADLEY INTL   CLOUDY    30  24  78 NW3       29.83F
HARTFORD       CLOUDY    35  24  64 CALM      29.84F
BRIDGEPORT     CLOUDY    42  31  64 SE13      29.80F
DANBURY        CLOUDY    35  26  69 SE3       29.78F
GROTON         CLOUDY    37  27  67 N5        29.84F
NEW HAVEN      CLOUDY    42  30  62 SE9       29.81F
CHESTER        FAIR      34  25  69 CALM      29.82F
MERIDEN        CLOUDY    31  26  82 CALM      29.82F
WILLIMANTIC    CLOUDY    32  26  78 CALM      29.86F
OXFORD         CLOUDY    34  27  75 E7        29.78F WCI  28
$$

MEZ002-015-021-024-NHZ003-005-008-011-012-014-VTZ005-008-121100-
NORTHERN NEW ENGLAND

CITY           SKY/WX    TMP DP  RH WIND       PRES   REMARKS
PORTLAND ME    LGT SNOW  21  17  84 N8        29.96F FOG     WCI  11
BANGOR ME      CLOUDY    13   8  81 N7        30.03F WCI   3
CONCORD NH     LGT SNOW  27  24  89 NE3       29.89F FOG
MANCHESTER NH  LGT SNOW  29  25  85 CALM      29.88F FOG
NASHUA NH      FLURRIES  28  26  92 CALM      29.89F
PORTSMOUTH NH  FLURRIES  28  25  88 N8        29.90F WCI  20
JAFFREY NH     LGT SNOW  27  25  92 VRB3      29.83S FOG
KEENE NH       LGT SNOW  28  25  86 CALM      29.85S FOG
BURLINGTON VT  LGT SNOW  22  18  85 S6        29.76F FOG     WCI  14
MT. WASHINGTON SNOW       5   5 100 S40G49      N/A  VSB 1/16WCI -22
$$

NYZ052-076-121100-
EASTERN NEW YORK

CITY           SKY/WX    TMP DP  RH WIND       PRES   REMARKS
ALBANY         LGT SNOW  30  27  88 SE5       29.75F FOG     WCI  25
NEW YORK CITY  CLOUDY    45  36  70 S10G16    29.76F
$$

ANZALL-121100-
MARINE OBSERVATIONS

STATION/POSITION TIME  TEMP    WIND        PRES    VSBY  WAVE
                       AIR SEA DIR/SP/G                  HT/PER
                 (UTC) (F)     (DEG/KT/KT) (MB)    (MI)  (FT/S)
BOSTON BUOY      0850   40 48  130/ 12/ 16 1012.2          1/11
BUZZARDS BAY     0900   43     180/  9/ 11 1012.4F
NANTUCKET SOUND  0850   42 44  120/ 10/ 12 1013.0          1/ 3
MASS BAY-STELLWA 0904   39 47  170/ 10/ 14 1012.8F         2/11
ISLE OF SHOALS   0900   38     150/  9/ 12 1013.2F
S OF BLOCK IS    0943      53                N/A           3/ 9
$$

......................KEY.........................
  SKY/WX - SKY CONDITION/PRESENT WEATHER
  TMP    - TEMPERATURE IN FAHRENHEIT
  DWPT   - DEWPOINT IN FAHRENHEIT
  RH     - RELATIVE HUMIDITY IN PERCENT
  WIND   - DIRECTION AND SPEED IN MPH
  PRES   - MEAN SEA LEVEL PRESSURE IN INCHES OF HG
  WCI    - WIND CHILL INDEX
  VSB    - VISIBILITY IN MILES
  HX     - HEAT INDEX
  TC     - TEMPERATURE IN CELSIUS
  VRB    - VARIABLE WIND DIRECTION
  N/A    - NOT AVAILABLE




Office: GYX ASUS41 KGYX 121005 RWRGYX WEATHER ROUNDUP FOR MAINE AND NEW HAMPSHIRE NATIONAL WEATHER SERVICE GRAY ME 500 AM EST TUE DEC 12 2017 MEZ002-005-006-010-012-015-018-020-021-024-026-027-029-121100- MAINE CITY SKY/WX TMP DP RH WIND PRES REMARKS PORTLAND LGT SNOW 21 17 84 N8 29.96F FOG SANFORD LGT SNOW 22 19 89 N8 29.94F FOG BAR HARBOR CLOUDY 18 12 77 NE7 30.03F WISCASSET LGT SNOW 20 16 84 VRB3 29.99F FOG ROCKLAND CLOUDY 25 22 88 NE9 29.98F FRYEBURG LGT SNOW 19 17 92 N7 29.95F FOG LEWISTONAUBURN LGT SNOW 17 12 80 N12 29.97F WCI 4 AUGUSTA CLOUDY 14 8 77 N8 29.99F WATERVILLE CLOUDY 13 8 81 N8 29.96F BANGOR CLOUDY 13 8 81 N7 30.03F GREENVILLE N/A 6 3 87 SE7 29.90S MILLINOCKET CLOUDY 7 4 87 E3 30.05F HOULTON CLOUDY 2 0 91 CALM 30.05R PRESQUE ISLE CLOUDY -8 -12 83 SW3 30.07S FRENCHVILLE CLOUDY 0 -4 83 E6 30.00S CARIBOU CLOUDY -3 -8 79 CALM 30.03S $$ NHZ002-005-008-009-011-012-014-121100- NEW HAMPSHIRE CITY SKY/WX TMP DP RH WIND PRES REMARKS PORTSMOUTH FLURRIES 28 25 88 N8 29.90F ROCHESTER LGT SNOW 24 22 91 N6 29.92F FOG NASHUA FLURRIES 28 26 92 CALM 29.89F MANCHESTER LGT SNOW 29 25 85 CALM 29.88F FOG CONCORD LGT SNOW 27 24 89 NE3 29.89F FOG LACONIA LGT SNOW 24 21 88 NE13 29.90F FOG WCI 12 PLYMOUTH LGT SNOW 23 22 95 CALM 29.89F BERLIN FLURRIES 14 10 84 NW5 29.86F WHITEFIELD CLOUDY 18 15 88 CALM 29.81F JAFFREY LGT SNOW 27 25 92 VRB3 29.83S FOG KEENE LGT SNOW 28 25 88 CALM 29.85S FOG LEBANON CLOUDY 25 22 88 CALM 29.82F MT WASHINGTON SNOW 5 5 100 S40G49 N/A VSB 1/16WCI -22 $$ VTZ005-007-008-121100- VERMONT CITY SKY/WX TMP DP RH WIND PRES REMARKS ST JOHNSBURY N/A 16 14 92 MISG 29.82F MONTPELIER LGT SNOW 17 16 95 CALM 29.81F FOG BURLINGTON LGT SNOW 22 18 85 S6 29.76F FOG $$ MAZ007-012-024-CTZ003-RIZ002-NYZ038-NYZ072-121100- SOUTHERN NEW ENGLAND AND NY CITY SKY/WX TMP DP RH WIND PRES REMARKS BOSTON CLOUDY 37 27 67 SE10 29.89F WORCESTER CLOUDY 28 18 66 E6 29.82F NANTUCKET CLOUDY 43 35 73 SE13 29.88F PROVIDENCE CLOUDY 36 30 79 E6 29.88F HARTFORD CLOUDY 30 24 78 NW3 29.83F ALBANY LGT SNOW 30 27 88 SE5 29.75F FOG NEW YORK CITY CLOUDY 45 36 70 S10G16 29.76F $$ ANZ081-ANZ082-ANZ150-NHZ014-MEZ023>029-121100- COASTAL MARINE OBSERVATIONS STATION/POSITION TIME TEMP WIND PRES WAVE AIR SEA DIR/SP/G HT/PER (UTC) (F) (DEG/KT/KT) (MB) (FT/S) MOUNT DESERT ROC 1000 31 20/ 21/ 24 1015.3F MATINICUS ROCK 0900 32 60/ 19/ 22 1014.5F ISLE OF SHOALS 0900 38 150/ 9/ 12 1013.2F JEFFREYS LEDGE 0936 47 N/A 2/11 GEORGES BANK BUO 0850 45 51 1014.9 6/ 7 $$ .............KEY.............. WCI - WIND CHILL TC - TEMPERATURE IN CELSIUS VSB - VISIBILITY IN MILES HX - HEAT INDEX FAIR- INDICATES FEW OR NO CLOUDS BELOW 12,000 FT, WITH NO SIGNIFICANT WEATHER AND/OR OBSTRUCTIONS TO VISIBILITY. ASUS41 KGYX 121010 RWRGYX WEATHER ROUNDUP FOR MAINE AND NEW HAMPSHIRE NATIONAL WEATHER SERVICE GRAY ME 500 AM EST TUE DEC 12 2017 MEZ002-005-006-010-012-015-018-020-021-024-026-027-029-121100- MAINE CITY SKY/WX TMP DP RH WIND PRES REMARKS PORTLAND LGT SNOW 21 17 84 N8 29.96F FOG SANFORD LGT SNOW 22 19 89 N8 29.94F FOG BAR HARBOR CLOUDY 18 12 77 NE7 30.03F WISCASSET LGT SNOW 20 16 84 VRB3 29.99F FOG ROCKLAND CLOUDY 25 22 88 NE9 29.98F FRYEBURG LGT SNOW 19 17 92 N7 29.95F FOG LEWISTONAUBURN LGT SNOW 17 12 80 N12 29.97F WCI 4 AUGUSTA CLOUDY 14 8 77 N8 29.99F WATERVILLE CLOUDY 13 8 81 N8 29.96F BANGOR CLOUDY 13 8 81 N7 30.03F GREENVILLE N/A 6 3 87 SE7 29.90S MILLINOCKET CLOUDY 7 4 87 E3 30.05F HOULTON CLOUDY 2 0 91 CALM 30.05R PRESQUE ISLE CLOUDY -8 -12 83 SW3 30.07S FRENCHVILLE CLOUDY 0 -4 83 E6 30.00S CARIBOU CLOUDY -3 -8 79 CALM 30.03S $$ NHZ002-005-008-009-011-012-014-121100- NEW HAMPSHIRE CITY SKY/WX TMP DP RH WIND PRES REMARKS PORTSMOUTH FLURRIES 28 25 88 N8 29.90F ROCHESTER LGT SNOW 24 22 91 N6 29.92F FOG NASHUA FLURRIES 28 26 92 CALM 29.89F MANCHESTER LGT SNOW 29 25 85 CALM 29.88F FOG CONCORD LGT SNOW 27 24 89 NE3 29.89F FOG LACONIA LGT SNOW 25 21 86 E14 29.89F FOG WCI 13 PLYMOUTH LGT SNOW 23 22 95 CALM 29.89F BERLIN FLURRIES 14 10 84 NW5 29.86F WHITEFIELD CLOUDY 18 15 88 CALM 29.81F JAFFREY LGT SNOW 27 25 92 VRB3 29.83S FOG KEENE LGT SNOW 28 25 86 CALM 29.85S FOG LEBANON CLOUDY 25 22 88 CALM 29.82F MT WASHINGTON SNOW 5 5 100 S40G49 N/A VSB 1/16WCI -22 $$ VTZ005-007-008-121100- VERMONT CITY SKY/WX TMP DP RH WIND PRES REMARKS ST JOHNSBURY N/A 16 14 92 MISG 29.82F MONTPELIER LGT SNOW 17 16 95 CALM 29.81F FOG BURLINGTON LGT SNOW 22 18 85 S6 29.76F FOG $$ MAZ007-012-024-CTZ003-RIZ002-NYZ038-NYZ072-121100- SOUTHERN NEW ENGLAND AND NY CITY SKY/WX TMP DP RH WIND PRES REMARKS BOSTON CLOUDY 37 27 67 SE10 29.89F WORCESTER CLOUDY 28 18 66 E6 29.82F NANTUCKET CLOUDY 43 35 73 SE13 29.88F PROVIDENCE CLOUDY 36 30 79 E6 29.88F HARTFORD CLOUDY 30 24 78 NW3 29.83F ALBANY LGT SNOW 30 27 88 SE5 29.75F FOG NEW YORK CITY CLOUDY 45 36 70 S10G16 29.76F $$ ANZ081-ANZ082-ANZ150-NHZ014-MEZ023>029-121100- COASTAL MARINE OBSERVATIONS STATION/POSITION TIME TEMP WIND PRES WAVE AIR SEA DIR/SP/G HT/PER (UTC) (F) (DEG/KT/KT) (MB) (FT/S) MOUNT DESERT ROC 1000 31 20/ 21/ 24 1015.3F MATINICUS ROCK 0900 32 60/ 19/ 22 1014.5F ISLE OF SHOALS 0900 38 150/ 9/ 12 1013.2F JEFFREYS LEDGE 0936 47 N/A 2/11 GEORGES BANK BUO 0850 45 51 1014.9 6/ 7 $$ .............KEY.............. WCI - WIND CHILL TC - TEMPERATURE IN CELSIUS VSB - VISIBILITY IN MILES HX - HEAT INDEX FAIR- INDICATES FEW OR NO CLOUDS BELOW 12,000 FT, WITH NO SIGNIFICANT WEATHER AND/OR OBSTRUCTIONS TO VISIBILITY.
Office: OKX ASUS41 KOKX 121009 RWROKX REGIONAL WEATHER ROUNDUP NATIONAL WEATHER SERVICE NEW YORK NY 500 AM EST TUE DEC 12 2017 NOTE: "FAIR" INDICATES FEW OR NO CLOUDS BELOW 12,000 FEET WITH NO SIGNIFICANT WEATHER AND/OR OBSTRUCTIONS TO VISIBILITY. NYZ071-072-176-178-NJZ106-104-121100- NEW YORK CITY METRO AREA CITY SKY/WX TMP DP RH WIND PRES REMARKS Central Park CLOUDY 45 36 70 S6 29.77F Bronx Bot Gard N/A 39 32 75 CALM 29.78F Bronx Lehman C N/A 41 32 70 E1 N/A LaGuardia APRT CLOUDY 45 36 70 S10G16 29.76F Queens College N/A 45 36 70 S13 N/A Kennedy INTL CLOUDY 46 37 71 S20G26 29.78F Breezy Point N/A 46 N/A N/A S20G25 N/A Brooklyn Coll N/A 46 37 71 S13 N/A Staten Island N/A 45 36 70 SE6 N/A Newark/Liberty LGT RAIN 44 35 70 S8 29.75F Teterboro CLOUDY 44 35 70 S10 29.74F $$ NYZ177-179-078>081-121100- LONG ISLAND NEW YORK CITY SKY/WX TMP DP RH WIND PRES REMARKS Jones Beach N/A 46 N/A N/A S16G24 N/A Wantagh N/A 45 36 70 SE14 N/A Matinecock PT N/A 41 N/A N/A SE6 N/A Farmingdale CLOUDY 43 34 70 S15 29.78F MacArthur/ISP CLOUDY 43 34 70 S9 29.79F Shirley CLOUDY 40 33 76 S8 29.82F WCI 34 Mt Sinai Harb N/A N/A N/A N/A SE5 N/A Westhampton MOCLDY 40 32 73 S5 29.84F East Hampton CLOUDY 32 29 88 CALM 29.83F Southold N/A 37 32 81 E3 N/A Montauk N/A 45 34 65 S6 29.85F $$ NYZ052-065-067-121100- HUDSON VALLEY CITY SKY/WX TMP DP RH WIND PRES REMARKS White Plains CLOUDY 36 30 79 SE6 29.75F WCI 31 Larchmont Harb N/A 41 N/A N/A E12 N/A Croton On Huds N/A 39 N/A N/A SE6 N/A WCI 35 Somers N/A 34 28 80 SE8 N/A WCI 27 Brewster N/A 34 28 80 SE3 N/A Newburgh MOCLDY 36 28 75 VRB7 29.74F WCI 30 Montgomery CLOUDY 31 26 82 NE6 29.71F WCI 25 Otisville N/A 30 27 86 NE2 N/A Warwick N/A 36 30 80 SE9 N/A WCI 29 Suffern N/A 34 30 86 E1 N/A Poughkeepsie CLOUDY 36 25 64 SE5 29.74F WCI 32 Albany LGT SNOW 30 27 88 SE5 29.75F FOG WCI 25 $$ NJZ001-105-106-008-010-013-015-019>022-104-121100- NEW JERSEY CITY SKY/WX TMP DP RH WIND PRES REMARKS Newark/Liberty LGT RAIN 44 35 70 S8 29.75F Teterboro CLOUDY 44 35 70 S10 29.74F Caldwell CLOUDY 35 29 78 CALM 29.74F Somerville CLOUDY 33 28 81 CALM 29.72F Linden CLOUDY 41 33 72 CALM 29.75F Perth Amboy N/A 41 N/A N/A SE9 N/A Sussex CLOUDY 37 28 70 CALM 29.71F Andover NOT AVBL Trenton CLOUDY 35 28 75 E5 29.71F WCI 31 Millville MOCLDY 45 38 76 VRB7 29.72F Atlantic City PTCLDY 47 37 68 S12 29.74F Wrightstown CLOUDY 40 33 74 SE9 29.70F WCI 35 Toms River MOCLDY 35 33 92 S3 29.75F Belmar CLOUDY 43 37 79 S8 29.76F $$ PAZ047>061-062-071-121100- EASTERN PENNSYLVANIA CITY SKY/WX TMP DP RH WIND PRES REMARKS Philadelphia CLOUDY 43 34 70 S12 29.71F Allentown CLOUDY 39 28 64 VRB6 29.68F WCI 35 Scranton FLURRIES 36 29 75 VRB3 29.61F $$ CTZ002-004>006-009-010-012-RIZ004-006-007-MAZ004-011-015-121100- SOUTHERN NEW ENGLAND IN CT CITY SKY/WX TMP DP RH WIND PRES REMARKS Bradley INTL CLOUDY 30 24 78 NW3 29.83F Hartford CLOUDY 35 24 64 CALM 29.84F Danbury CLOUDY 35 26 69 SE3 29.78F Wtrbury/Oxford CLOUDY 34 27 75 E7 29.78F WCI 28 Norwalk Harbor N/A 41 N/A N/A SE20 N/A Bridgeport CLOUDY 42 31 64 SE13 29.80F Meriden CLOUDY 31 26 82 CALM 29.82F New Haven CLOUDY 42 30 62 SE9 29.81F Chester FAIR 34 25 69 CALM 29.82F Groton CLOUDY 37 27 67 N5 29.84F WCI 33 Wilimantic CLOUDY 32 26 78 CALM 29.86F IN RI CITY SKY/WX TMP DP RH WIND PRES REMARKS Providence CLOUDY 36 30 79 E6 29.88F WCI 31 Block Island N/A N/A N/A N/A MISG N/A Westerly CLOUDY 35 28 75 NE5 29.86F WCI 31 IN MA CITY SKY/WX TMP DP RH WIND PRES REMARKS Boston CLOUDY 37 27 67 SE10 29.89F WCI 30 Worcester CLOUDY 28 18 66 E6 29.82F WCI 22 Westfield CLOUDY 29 26 89 N6 29.83F WCI 23 Provincetown CLOUDY 37 29 72 E5 29.91F WCI 33 Nantucket CLOUDY 43 35 73 SE13 29.88F $$ ANZ330-335-338-340-345-350-353-355-121100- COASTAL MARINE OBSERVATIONS STATION/POSITION TIME SKY/WX TEMP WIND PRES VSBY WAVE AIR SEA DIR/SP/G HT/PER (UTC) (F) (DEG/KT/KT) (MB) (MI) (FT/S) NY HARB ENTRANCE 0850 48 53 180/ 19/ 23 1008.8 3/ 4 20 S FIRE ISLAND 0850 46 53 180/ 16/ 19 1010.3 3/ 9 GREAT SOUTH BAY 0930 44 45 190/ 14/ 17 N/A HUDSON CANYON 0850 48 56 180/ 12/ 16 1010.5 3/ 9 KINGS POINT 0930 43 45 190/ 7/ 10 1008.9 EXECUTION ROCKS 0930 42 130/ 8/ 10 N/A WESTERN LI SOUND 0849 41 130/ 12/ 16 N/A 1 CENTRAL LI SOUND 0945 43 140/ 10/ 12 N/A 1 ROBBINS REEF 0930 46 170/ 16/ 19 1008.6 $$ >>>>>>>>>>>>>>>>>>>>>>>>>>>> KEY <<<<<<<<<<<<<<<<<<<<<<<<<<< > < > SKY/WX - Sky Condition/Present Weather < > TMP - Temperature in Fahrenheit < > DP - Dew Point in Fahrenheit < > RH - Relative Humidity in Percent < > WIND - Direction (from) and Speed in MPH < > PRES - Mean Sea Level Pressure (inches of Hg) < > WCI - Wind Chill Index < > VSB - VISIBILITY IN MILES < > HX - HEAT INDEX < > TC - TEMPERATURE IN CELSIUS < > VRB - VARIABLE WIND DIRECTION < > < >>>>>>>>>>>>>>>>>>>>>>>>>>>> KEY <<<<<<<<<<<<<<<<<<<<<<<<<<<